User: anonymous   Login
Location: Fort Wayne
(41.1310°N, 85.1290°W)
Time: 16:46:36
(UTC-05:00)
Language:

Cosmos 2219 Rocket - Orbit

View from above orbital plane
View from above orbital plane
View from above satellite
View from above satellite

Ground track
Ground track

The orbit data is extracted from the following two-line orbital elements,

1 22220U 92076B   16038.50011485  .00000055  00000-0  51759-4 0  9995
2 22220  71.0007  22.6181 0014864 302.3775 193.4786 14.16391343200583
Epoch (UTC): 07 February 2016 12:00:09
Eccentricity: 0.0014864
inclination: 71.0007°
perigee height: 827 km
apogee height: 848 km
right ascension of ascending node: 22.6181°
argument of perigee: 302.3775°
revolutions per day: 14.16391343
mean anomaly at epoch: 193.4786°
orbit number at epoch: 20058

The dashed part of the orbit path shows where the satellite is in the earth's shadow,  

DLR